Location: Ladysmith
(45.4630°N, 91.1040°W)
Time: 17:48:36
(UTC-06:00)

Amateur Radio Satellites - All Passes

Search period start: 03 December 2016 17:18
Search period end: 04 December 2016 17:18
Location: Ladysmith, 45.4630°N, 91.1040°W

Satellite Date Start Highest point End Downlink Frequencies (MHz)
Time Altitude Azimuth
CINEMA 3 03 Dec 17:19:18 17:22:32 18° 61° (ENE) 17:25:50 145.822/145.860
O/OREOS (USA 219) 03 Dec 17:28:09 17:32:26 39° 301° (WNW) 17:36:42 437.305
CUBESAT XI-V 03 Dec 17:29:16 17:33:55 69° 286° (WNW) 17:38:33 437.345
Cubesat XI-IV 03 Dec 17:36:23 17:41:46 81° 256° (WSW) 17:47:12 437.490
MOZHAYETS 4 03 Dec 17:36:54 17:38:29 12° 302° (WNW) 17:40:02
NOAA 15 03 Dec 17:43:52 17:49:03 62° 258° (WSW) 17:54:16 137.62
AIST 2 03 Dec 17:45:36 17:49:45 56° 239° (WSW) 17:53:53 435.215
RS-15 03 Dec 17:46:54 17:58:45 56° 247° (WSW) 18:10:15 29.354- 29.394
LilacSat-2 03 Dec 17:49:00 17:52:44 48° 261° (W) 17:56:29 437.200
CUBEBUG 2 03 Dec 17:58:23 17:59:57 11° 58° (ENE) 18:01:29 437.445
Cosmos 2491 03 Dec 18:14:11 18:22:57 77° 80° (E) 18:31:40 435.465 / 435.565
CUTE 1.7 + AOD 2 03 Dec 18:14:57 18:18:38 30° 68° (ENE) 18:22:19 437.475
HO-68 03 Dec 18:17:09 18:24:04 55° 66° (ENE) 18:31:02 435.675
ISS 03 Dec 18:18:33 18:21:51 73° 333° (NNW) 18:25:10 145.825
STRAND 1 03 Dec 18:21:23 18:24:44 17° 90° (E) 18:28:03 437.568
GOMX 1 03 Dec 18:31:00 18:33:36 15° 273° (W) 18:36:17 467.674
CANX-2 03 Dec 18:31:52 18:35:57 51° 73° (ENE) 18:40:04 2200.000
NOAA 18 03 Dec 18:37:09 18:42:15 38° 262° (W) 18:47:25 137.9125
STARS 03 Dec 18:41:31 18:43:02 12° 302° (WNW) 18:44:34 437.465
Oscar 11 03 Dec 18:43:17 18:43:34 10° 58° (ENE) 18:43:51 145.826/435.025
UWE-3 03 Dec 18:44:42 18:48:07 20° 64° (ENE) 18:51:30 435.000/436.395/437.385
YUBILEINY 03 Dec 18:45:13 18:53:23 48° 88° (E) 19:01:38 435.215
AAUSAT CUBESAT 2 03 Dec 18:52:21 18:55:49 27° 68° (ENE) 18:59:18 437.432
CUTE-I 03 Dec 18:53:32 18:57:15 19° 269° (W) 19:00:59 437.470
CINEMA 3 03 Dec 18:54:13 18:59:06 68° 259° (W) 19:04:08 145.822/145.860
DOVE 4 03 Dec 18:54:27 18:58:01 21° 270° (W) 19:01:45 437.250
SEEDS 03 Dec 19:03:08 19:07:16 67° 75° (ENE) 19:11:25 437.485
PCSat 03 Dec 19:17:42 19:21:39 20° 37° (NE) 19:25:34 145.827
AIST 1 03 Dec 19:18:16 19:21:40 23° 88° (E) 19:25:06
COMPASS 1 03 Dec 19:18:58 19:23:03 67° 74° (ENE) 19:27:10 437.405
Cubesat XI-IV 03 Dec 19:21:08 19:22:40 11° 274° (W) 19:24:13 437.490
CUBEBUG 2 03 Dec 19:31:00 19:35:46 81° 75° (ENE) 19:40:32 437.445
ZACube-1 03 Dec 19:31:17 19:35:25 35° 69° (ENE) 19:39:31 437.345
FUNcube-1 03 Dec 19:40:30 19:44:43 39° 70° (ENE) 19:48:55 145.935
Cosmos 2504 03 Dec 19:41:21 19:49:18 52° 89° (E) 19:57:43 435.465 / 435.565
CUTE 1.7 + AOD 2 03 Dec 19:50:53 19:54:27 26° 265° (W) 19:58:02 437.475
HUMSAT D 03 Dec 19:51:26 19:52:15 10° 59° (ENE) 19:53:06 437.325/437.525
ISS 03 Dec 19:55:47 19:58:44 28° 353° (N) 20:01:40 145.825
STRAND 1 03 Dec 19:59:18 20:04:22 64° 288° (WNW) 20:09:23 437.568
RS-15 03 Dec 20:04:34 20:08:09 12° 270° (W) 20:11:42 29.354- 29.394
HO-68 03 Dec 20:05:48 20:12:04 32° 265° (W) 20:18:25 435.675
CANX-2 03 Dec 20:09:34 20:12:07 15° 270° (W) 20:14:40 2200.000
Cosmos 2491 03 Dec 20:12:16 20:18:50 25° 281° (W) 20:25:24 435.465 / 435.565
Oscar 11 03 Dec 20:14:38 20:18:57 84° 78° (ENE) 20:23:19 145.826/435.025
DELFI C3 03 Dec 20:15:00 20:18:26 30° 69° (ENE) 20:21:52 145.870
UWE-3 03 Dec 20:19:40 20:24:13 50° 261° (W) 20:28:45 435.000/436.395/437.385
CUSAT 1 03 Dec 20:24:14 20:27:31 61° 79° (E) 20:31:43 437.405
AAUSAT CUBESAT 2 03 Dec 20:27:41 20:31:13 28° 265° (W) 20:34:47 437.432
SEEDS 03 Dec 20:41:51 20:43:25 12° 272° (W) 20:44:59 437.485
YUBILEINY 03 Dec 20:42:10 20:50:17 42° 290° (WNW) 20:58:31 435.215
DANDE 03 Dec 20:44:35 20:46:29 17° 74° (ENE) 20:48:31 436.750
AIST 1 03 Dec 20:55:11 20:59:04 33° 286° (WNW) 21:03:02
SO-50 03 Dec 20:56:42 21:01:28 74° 123° (ESE) 21:06:10 436.795
COMPASS 1 03 Dec 20:57:38 20:59:04 12° 272° (W) 21:00:29 437.405
PCSat 03 Dec 21:00:21 21:05:50 88° 59° (ENE) 21:11:16 145.827
ZACube-1 03 Dec 21:07:52 21:11:44 26° 266° (W) 21:15:33 437.345
CUBEBUG 2 03 Dec 21:11:00 21:12:57 12° 273° (W) 21:14:54 437.445
FUNcube-1 03 Dec 21:17:27 21:21:04 23° 267° (W) 21:24:41 145.935
UNISAT 6 03 Dec 21:18:37 21:21:32 17° 90° (E) 21:24:23 437.425
HUMSAT D 03 Dec 21:22:58 21:27:13 89° 261° (W) 21:31:26 437.325/437.525
ISS 03 Dec 21:32:46 21:35:49 32° 13° (NNE) 21:38:52 145.825
PRISM 03 Dec 21:34:05 21:38:15 79° 285° (WNW) 21:42:24 437.425
Cosmos 2504 03 Dec 21:35:15 21:42:57 39° 291° (WNW) 21:51:07 435.465 / 435.565
STRAND 1 03 Dec 21:42:18 21:42:32 10° 307° (NW) 21:42:46 437.568
TIGRISAT 03 Dec 21:48:42 21:52:42 32° 96° (E) 21:56:34 435.000
ANTELSAT 03 Dec 21:49:24 21:53:28 34° 96° (E) 21:57:25 437.575/2403.000
DELFI C3 03 Dec 21:50:07 21:53:15 23° 266° (W) 21:56:25 145.870
ESTCUBE 1 03 Dec 21:53:44 21:57:40 31° 68° (ENE) 22:01:38 437.505/2401.250
SPROUT 03 Dec 22:07:31 22:09:30 13° 60° (ENE) 22:11:29 437.525
AISAT 03 Dec 22:12:02 22:15:30 23° 64° (ENE) 22:19:00 437.250
50 SAT 03 Dec 22:26:48 22:29:24 20° 66° (ENE) 22:32:00 437.505
DANDE 03 Dec 22:27:30 22:29:03 14° 266° (W) 22:30:42 436.750
NANOSAT C BR1 03 Dec 22:32:33 22:32:51 10° 88° (E) 22:33:10 145.865
QB50P2 03 Dec 22:34:18 22:36:14 13° 89° (E) 22:38:10 145.880/145.840
POLYITAN 1 03 Dec 22:35:06 22:36:49 12° 89° (E) 22:38:32 437.675
SO-50 03 Dec 22:38:46 22:42:25 22° 323° (NW) 22:46:03 436.795
JAS-2 03 Dec 22:41:58 22:46:10 24° 94° (E) 22:50:23 435.910
CUBEBUG 1 03 Dec 22:44:07 22:48:25 62° 73° (ENE) 22:52:46 437.445
PCSat 03 Dec 22:45:37 22:48:27 14° 257° (WSW) 22:51:15 145.827
QB50P1 03 Dec 22:48:08 22:50:55 17° 91° (E) 22:53:41 145.935-145.965
VELOX 1 03 Dec 22:48:12 22:52:26 48° 71° (ENE) 22:56:42 145.980
DUCHIFAT 1 03 Dec 22:53:59 22:56:43 17° 91° (E) 22:59:26 145.980
Cosmos 2499 03 Dec 22:54:14 22:58:07 14° 71° (ENE) 23:02:02 435.465 / 435.565
UNISAT 6 03 Dec 22:54:15 22:58:35 50° 289° (WNW) 23:02:47 437.425
POPSAT HIP 1 03 Dec 23:08:44 23:12:23 27° 95° (E) 23:15:59 437.405
ISS 03 Dec 23:09:14 23:12:32 71° 212° (SSW) 23:15:50 145.825
DX 1 03 Dec 23:10:17 23:14:26 45° 70° (ENE) 23:18:37 434.975-435.025
UKube-1 03 Dec 23:22:35 23:26:42 46° 70° (ENE) 23:30:51 .
GONETS M04 03 Dec 23:24:59 23:30:58 21° 77° (ENE) 23:36:55
TIGRISAT 03 Dec 23:25:32 23:29:18 27° 294° (WNW) 23:32:58 435.000
ANTELSAT 03 Dec 23:26:22 23:30:02 26° 295° (WNW) 23:33:37 437.575/2403.000
ESTCUBE 1 03 Dec 23:30:37 23:34:28 28° 265° (W) 23:38:22 437.505/2401.250
TISAT 1 03 Dec 23:37:21 23:40:25 20° 64° (ENE) 23:43:29 437.305
SPROUT 03 Dec 23:40:32 23:44:50 75° 258° (WSW) 23:49:10 437.525
M-CUBED/EXP-1 PRIME 03 Dec 23:45:57 23:47:21 11° 50° (NE) 23:48:47 437.505
AISAT 03 Dec 23:47:36 23:51:44 40° 262° (W) 23:55:56 437.250
50 SAT 03 Dec 23:59:29 00:02:33 28° 263° (W) 00:05:38 437.505
BUGSAT 1 04 Dec 00:00:43 00:04:34 33° 97° (E) 00:08:20 437.445
NANOSAT C BR1 04 Dec 00:04:53 00:09:08 80° 287° (WNW) 00:13:20 145.865
QB50P2 04 Dec 00:08:14 00:12:28 64° 286° (WNW) 00:16:39 145.880/145.840
POLYITAN 1 04 Dec 00:08:51 00:13:05 67° 286° (WNW) 00:17:16 437.675
O/OREOS (USA 219) 04 Dec 00:19:28 00:20:34 11° 43° (NE) 00:21:39 437.305
QB50P1 04 Dec 00:22:51 00:26:57 48° 289° (WNW) 00:31:01 145.935-145.965
CUBEBUG 1 04 Dec 00:22:52 00:25:07 14° 271° (W) 00:27:23 437.445
ITUPSAT 1 04 Dec 00:24:12 00:26:55 15° 59° (ENE) 00:29:37 437.325
VELOX 1 04 Dec 00:26:07 00:29:10 18° 268° (W) 00:32:13 145.980
JAS-2 04 Dec 00:26:36 00:31:31 44° 292° (WNW) 00:36:31 435.910
DUCHIFAT 1 04 Dec 00:28:36 00:32:41 48° 289° (WNW) 00:36:43 145.980
Oscar 19 04 Dec 00:28:44 00:32:17 18° 91° (E) 00:35:49 437.125/150
Cosmos 2499 04 Dec 00:41:00 00:49:23 66° 93° (E) 00:58:10 435.465 / 435.565
POPSAT HIP 1 04 Dec 00:44:25 00:48:09 30° 292° (WNW) 00:51:50 437.405
ISS 04 Dec 00:47:34 00:48:30 11° 229° (SW) 00:49:26 145.825
DX 1 04 Dec 00:47:47 00:50:51 19° 268° (W) 00:53:57 434.975-435.025
UKube-1 04 Dec 00:59:59 01:02:58 18° 268° (W) 01:05:59 .
AUBIESAT-1 04 Dec 01:06:56 01:10:56 53° 66° (ENE) 01:15:14 437.475
TISAT 1 04 Dec 01:11:42 01:15:45 44° 261° (W) 01:19:51 437.305
M-CUBED/EXP-1 PRIME 04 Dec 01:16:56 01:20:59 82° 72° (ENE) 01:25:25 437.505
GONETS M04 04 Dec 01:17:50 01:26:35 87° 278° (W) 01:35:21
MOZHAYETS 4 04 Dec 01:26:40 01:29:07 14° 60° (ENE) 01:31:33
SWISSCUBE 04 Dec 01:29:06 01:33:49 64° 72° (ENE) 01:38:33 437.505
BEESAT 04 Dec 01:33:25 01:38:08 63° 73° (ENE) 01:42:52 436.000
BUGSAT 1 04 Dec 01:36:21 01:39:46 24° 294° (WNW) 01:43:10 437.445
Gurwin Techsat 1B 04 Dec 01:43:10 01:48:15 44° 98° (E) 01:53:18 435.225
O/OREOS (USA 219) 04 Dec 01:56:23 02:00:53 69° 64° (ENE) 02:05:19 437.305
ITUPSAT 1 04 Dec 01:59:21 02:04:09 76° 259° (WSW) 02:08:58 437.325
Oscar 19 04 Dec 02:06:53 02:12:01 63° 289° (WNW) 02:17:08 437.125/150
KKS-1 04 Dec 02:13:53 02:17:00 19° 62° (ENE) 02:20:08 437.445
PHONESAT 2.4 04 Dec 02:24:44 02:26:50 20° 167° (SSE) 02:28:55 2401.200-2431.200
STARS 04 Dec 02:27:55 02:29:57 13° 59° (ENE) 02:31:58 437.465
ITAMSAT 1 04 Dec 02:30:15 02:34:40 28° 95° (E) 02:39:04 435.822/435.867
Cosmos 2499 04 Dec 02:35:41 02:43:11 32° 295° (WNW) 02:50:58 435.465 / 435.565
AO-85 04 Dec 02:39:56 02:44:48 64° 122° (ESE) 02:49:18 145.980
AUBIESAT-1 04 Dec 02:43:05 02:45:43 16° 265° (W) 02:48:28 437.475
AO-7 04 Dec 02:52:41 03:00:01 32° 95° (E) 03:07:17 29.400- 29.500
M-CUBED/EXP-1 PRIME 04 Dec 02:55:35 02:56:09 10° 269° (W) 02:56:43 437.505
CUBESAT XI-V 04 Dec 02:58:58 03:02:05 18° 62° (ENE) 03:05:12 437.345
MOZHAYETS 4 04 Dec 03:01:06 03:05:42 74° 258° (WSW) 03:10:18
SWISSCUBE 04 Dec 03:09:11 03:12:02 16° 270° (W) 03:14:56 437.505
BEESAT 04 Dec 03:13:26 03:16:21 16° 270° (W) 03:19:15 436.000
GONETS M04 04 Dec 03:18:32 03:24:47 21° 301° (WNW) 03:31:05
Gurwin Techsat 1B 04 Dec 03:23:31 03:28:00 28° 296° (WNW) 03:32:27 435.225
O/OREOS (USA 219) 04 Dec 03:37:35 03:39:40 13° 262° (W) 03:41:45 437.305
SO-50 04 Dec 03:46:20 03:49:53 21° 37° (NE) 03:53:22 436.795
KKS-1 04 Dec 03:48:50 03:53:11 51° 260° (W) 03:57:35 437.445
Oscar 19 04 Dec 03:49:54 03:50:20 10° 307° (NW) 03:50:46 437.125/150
PHONESAT 2.4 04 Dec 03:59:23 04:01:42 26° 184° (S) 04:04:01 2401.200-2431.200
STARS 04 Dec 04:01:14 04:05:40 80° 258° (WSW) 04:10:08 437.465
ITAMSAT 1 04 Dec 04:09:25 04:14:16 41° 293° (WNW) 04:19:05 435.822/435.867
AO-85 04 Dec 04:21:48 04:25:34 23° 320° (NW) 04:29:07 145.980
CUBESAT XI-V 04 Dec 04:34:33 04:39:03 55° 260° (W) 04:43:35 437.345
AO-7 04 Dec 04:45:01 04:53:16 64° 295° (WNW) 05:01:29 29.400- 29.500
GOMX 1 04 Dec 04:50:13 04:54:11 20° 90° (E) 04:58:09 467.674
HORYU 2 04 Dec 04:52:27 04:56:17 28° 96° (E) 05:00:05 437.375
YUBILEINY 04 Dec 04:52:27 04:59:41 27° 63° (ENE) 05:06:54 435.215
BRITE-PL 04 Dec 05:01:28 05:06:41 52° 99° (E) 05:12:09 437.365/2234.400
BEESAT 3 04 Dec 05:13:12 05:16:41 32° 117° (ESE) 05:20:13 437.485
DOVE 4 04 Dec 05:13:28 05:16:12 14° 86° (E) 05:18:55 437.250
NOAA 18 04 Dec 05:18:55 05:20:20 11° 86° (E) 05:21:44 137.9125
LilacSat-2 04 Dec 05:21:07 05:23:22 15° 91° (E) 05:25:36 437.200
Cosmos 2491 04 Dec 05:25:34 05:30:50 18° 75° (ENE) 05:36:03 435.465 / 435.565
SO-50 04 Dec 05:26:17 05:30:49 69° 237° (WSW) 05:35:14 436.795
CUTE-I 04 Dec 05:27:02 05:31:02 21° 92° (E) 05:35:00 437.470
Cosmos 2504 04 Dec 05:31:42 05:38:34 24° 60° (ENE) 05:45:12 435.465 / 435.565
PHONESAT 2.4 04 Dec 05:34:58 05:36:30 14° 200° (SSW) 05:38:01 2401.200-2431.200
BEESAT 2 04 Dec 05:37:34 05:40:54 27° 116° (ESE) 05:44:18 435.950
STRAND 1 04 Dec 05:38:55 05:43:26 32° 65° (ENE) 05:47:58 437.568
Cubesat XI-IV 04 Dec 05:51:40 05:56:31 34° 96° (E) 06:01:19 437.490
NOAA 15 04 Dec 05:56:41 06:01:41 41° 98° (E) 06:06:39 137.62
RS-15 04 Dec 06:03:45 06:11:58 23° 98° (E) 06:20:24 29.354- 29.394
GOMX 1 04 Dec 06:27:15 06:32:37 64° 287° (WNW) 06:38:02 467.674
HORYU 2 04 Dec 06:28:54 06:32:50 31° 293° (WNW) 06:36:43 437.375
AO-7 04 Dec 06:39:24 06:44:28 18° 317° (NW) 06:49:33 29.400- 29.500
BRITE-PL 04 Dec 06:40:34 06:44:51 26° 295° (WNW) 06:49:20 437.365/2234.400
CINEMA 3 04 Dec 06:47:25 06:51:32 27° 93° (E) 06:55:28 145.822/145.860
YUBILEINY 04 Dec 06:48:37 06:57:26 76° 265° (W) 07:06:13 435.215
DOVE 4 04 Dec 06:49:11 06:54:33 84° 285° (WNW) 06:59:47 437.250
BEESAT 3 04 Dec 06:50:52 06:54:19 29° 316° (NW) 06:57:50 437.485
PRISM 04 Dec 06:53:31 06:54:35 11° 58° (ENE) 06:55:37 437.425
LilacSat-2 04 Dec 06:54:18 06:57:53 42° 288° (WNW) 07:01:27 437.200
NOAA 18 04 Dec 06:56:17 07:01:53 78° 104° (ESE) 07:07:24 137.9125
AIST 1 04 Dec 06:59:10 07:03:35 74° 79° (E) 07:07:59
CUTE-I 04 Dec 07:06:13 07:11:27 56° 290° (WNW) 07:16:37 437.470
BEESAT 2 04 Dec 07:14:58 07:18:36 34° 314° (NW) 07:22:17 435.950
Cosmos 2491 04 Dec 07:17:26 07:26:13 82° 96° (E) 07:35:01 435.465 / 435.565
STRAND 1 04 Dec 07:17:50 07:22:32 36° 263° (W) 07:27:16 437.568
CUBEBUG 2 04 Dec 07:21:26 07:23:52 14° 89° (E) 07:26:14 437.445
Cosmos 2504 04 Dec 07:24:17 07:33:12 86° 263° (W) 07:41:39 435.465 / 435.565
HO-68 04 Dec 07:29:46 07:36:40 46° 99° (E) 07:43:32 435.675
Cubesat XI-IV 04 Dec 07:31:44 07:36:35 36° 294° (WNW) 07:41:23 437.490
CUTE 1.7 + AOD 2 04 Dec 07:32:41 07:36:43 43° 98° (E) 07:40:43 437.475
NOAA 15 04 Dec 07:36:48 07:41:18 29° 296° (WNW) 07:45:48 137.62
AIST 2 04 Dec 07:46:09 07:48:51 17° 111° (ESE) 07:51:34 435.215
CANX-2 04 Dec 07:50:07 07:54:21 78° 102° (ESE) 07:58:34 2200.000
Oscar 11 04 Dec 08:01:16 08:03:19 13° 89° (E) 08:05:21 145.826/435.025
AAUSAT CUBESAT 2 04 Dec 08:06:56 08:10:47 36° 97° (E) 08:14:37 437.432
UWE-3 04 Dec 08:07:34 08:11:17 27° 94° (E) 08:14:55 435.000/436.395/437.385
GOMX 1 04 Dec 08:08:16 08:09:41 11° 305° (NW) 08:11:07 467.674
RS-15 04 Dec 08:10:39 08:22:26 81° 121° (ESE) 08:34:47 29.354- 29.394
UNISAT 6 04 Dec 08:19:06 08:22:41 22° 64° (ENE) 08:26:16 437.425
SEEDS 04 Dec 08:20:10 08:24:21 84° 284° (WNW) 08:28:32 437.485
CINEMA 3 04 Dec 08:24:14 08:28:44 38° 292° (WNW) 08:33:04 145.822/145.860
PRISM 04 Dec 08:25:10 08:29:13 83° 257° (WSW) 08:33:20 437.425
DOVE 4 04 Dec 08:28:44 08:31:23 14° 303° (WNW) 08:34:01 437.250
COMPASS 1 04 Dec 08:34:45 08:38:56 86° 283° (WNW) 08:43:05 437.405
NOAA 18 04 Dec 08:38:12 08:41:54 19° 303° (WNW) 08:45:35 137.9125
AIST 1 04 Dec 08:39:15 08:40:31 11° 278° (W) 08:41:47
YUBILEINY 04 Dec 08:47:51 08:52:38 16° 287° (WNW) 08:57:25 435.215
TIGRISAT 04 Dec 08:48:52 08:53:12 38° 69° (ENE) 08:57:32 435.000
ANTELSAT 04 Dec 08:49:42 08:54:06 41° 70° (ENE) 08:58:28 437.575/2403.000
ZACube-1 04 Dec 08:53:16 08:57:27 51° 99° (E) 09:01:31 437.345
CUBEBUG 2 04 Dec 08:56:31 09:00:56 60° 287° (WNW) 09:05:10 437.445
JAS-2 04 Dec 08:57:53 09:01:47 17° 59° (ENE) 09:05:26 435.910
FUNcube-1 04 Dec 09:02:13 09:06:26 59° 100° (E) 09:10:32 145.935
HUMSAT D 04 Dec 09:06:01 09:07:38 12° 89° (E) 09:09:13 437.325/437.525
CUTE 1.7 + AOD 2 04 Dec 09:09:15 09:12:17 19° 295° (WNW) 09:15:18 437.475
Cosmos 2491 04 Dec 09:17:16 09:24:09 25° 298° (WNW) 09:31:03 435.465 / 435.565
HO-68 04 Dec 09:17:42 09:24:18 40° 298° (WNW) 09:30:51 435.675
Cosmos 2504 04 Dec 09:19:28 09:25:14 20° 285° (WNW) 09:30:50 435.465 / 435.565
AIST 2 04 Dec 09:22:52 09:26:54 55° 309° (NW) 09:31:01 435.215
DELFI C3 04 Dec 09:24:15 09:27:55 35° 97° (E) 09:31:36 145.870
NANOSAT C BR1 04 Dec 09:26:14 09:27:45 12° 59° (ENE) 09:29:16 145.865
CANX-2 04 Dec 09:28:02 09:29:36 12° 300° (WNW) 09:31:10 2200.000
QB50P2 04 Dec 09:29:06 09:31:25 14° 61° (ENE) 09:33:44 145.880/145.840
POLYITAN 1 04 Dec 09:29:50 09:32:02 14° 60° (ENE) 09:34:14 437.675
CUSAT 1 04 Dec 09:30:16 09:33:27 48° 99° (E) 09:36:09 437.405
AO-85 04 Dec 09:30:16 09:32:48 16° 34° (NE) 09:35:16 145.980
GONETS M04 04 Dec 09:31:39 09:34:36 12° 49° (NE) 09:37:33
Oscar 11 04 Dec 09:35:37 09:39:53 64° 286° (WNW) 09:44:07 145.826/435.025
QB50P1 04 Dec 09:42:43 09:45:39 18° 63° (ENE) 09:48:35 145.935-145.965
AAUSAT CUBESAT 2 04 Dec 09:42:52 09:46:03 22° 294° (WNW) 09:49:14 437.432
UWE-3 04 Dec 09:43:56 09:47:45 30° 292° (WNW) 09:51:27 435.000/436.395/437.385
DUCHIFAT 1 04 Dec 09:48:00 09:50:51 18° 63° (ENE) 09:53:43 145.980
DANDE 04 Dec 09:54:35 09:58:42 29° 97° (E) 10:01:59 436.750
UNISAT 6 04 Dec 09:54:35 09:59:06 46° 261° (W) 10:03:37 437.425
POPSAT HIP 1 04 Dec 10:03:09 10:06:48 28° 67° (ENE) 10:10:28 437.405
RS-15 04 Dec 10:24:59 10:36:16 43° 329° (NNW) 10:47:56 29.354- 29.394
TIGRISAT 04 Dec 10:26:05 10:29:58 25° 266° (W) 10:33:52 435.000
ANTELSAT 04 Dec 10:27:09 10:30:55 24° 267° (W) 10:34:41 437.575/2403.000
Cosmos 2499 04 Dec 10:30:26 10:37:45 29° 63° (ENE) 10:44:40 435.465 / 435.565
ZACube-1 04 Dec 10:30:34 10:33:20 17° 297° (WNW) 10:36:04 437.345
HUMSAT D 04 Dec 10:39:37 10:43:40 62° 287° (WNW) 10:47:41 437.325/437.525
JAS-2 04 Dec 10:39:43 10:46:18 87° 255° (WSW) 10:52:07 435.910
FUNcube-1 04 Dec 10:39:45 10:42:11 15° 299° (WNW) 10:44:35 145.935
BUGSAT 1 04 Dec 10:52:15 10:56:00 32° 68° (ENE) 10:59:47 437.445
NANOSAT C BR1 04 Dec 10:58:34 11:02:50 83° 257° (WSW) 11:07:08 145.865
DELFI C3 04 Dec 10:59:33 11:02:32 21° 294° (WNW) 11:05:30 145.870
QB50P2 04 Dec 11:02:26 11:06:42 66° 258° (WSW) 11:11:00 145.880/145.840
POLYITAN 1 04 Dec 11:03:01 11:07:17 69° 258° (WSW) 11:11:36 437.675
AIST 2 04 Dec 11:04:44 11:06:19 12° 331° (NNW) 11:07:55 435.215
AO-85 04 Dec 11:09:46 11:13:47 83° 238° (WSW) 11:17:40 145.980
QB50P1 04 Dec 11:16:54 11:21:03 49° 260° (W) 11:25:14 145.935-145.965
ESTCUBE 1 04 Dec 11:19:57 11:24:20 49° 100° (E) 11:28:44 437.505/2401.250
DUCHIFAT 1 04 Dec 11:22:02 11:26:10 50° 260° (W) 11:30:20 145.980
50 SAT 04 Dec 11:23:45 11:26:04 16° 93° (E) 11:28:23 437.505
SPROUT 04 Dec 11:25:16 11:27:57 16° 91° (E) 11:30:37 437.525
GONETS M04 04 Dec 11:25:25 11:33:55 53° 74° (ENE) 11:42:24
Gurwin Techsat 1B 04 Dec 11:29:50 11:32:31 14° 56° (NE) 11:35:13 435.225
AISAT 04 Dec 11:35:16 11:39:18 32° 96° (E) 11:43:18 437.250
DANDE 04 Dec 11:37:47 11:41:20 22° 285° (WNW) 11:44:15 436.750
POPSAT HIP 1 04 Dec 11:38:43 11:42:30 30° 264° (W) 11:46:19 437.405
PCSat 04 Dec 11:43:59 11:49:12 52° 115° (ESE) 11:54:28 145.827
Oscar 19 04 Dec 11:47:22 11:51:55 33° 66° (ENE) 11:56:30 437.125/150
CUBEBUG 1 04 Dec 12:06:25 12:10:53 87° 287° (WNW) 12:15:20 437.445
AO-7 04 Dec 12:06:35 12:10:50 15° 40° (NE) 12:15:05 29.400- 29.500
VELOX 1 04 Dec 12:12:02 12:16:31 72° 103° (ESE) 12:20:59 145.980
Cosmos 2499 04 Dec 12:23:04 12:31:44 71° 266° (W) 12:39:48 435.465 / 435.565
BUGSAT 1 04 Dec 12:27:50 12:31:22 26° 265° (W) 12:34:57 437.445
JAS-2 04 Dec 12:28:47 12:31:59 14° 271° (W) 12:35:03 435.910
DX 1 04 Dec 12:31:59 12:36:22 63° 102° (ESE) 12:40:42 434.975-435.025
RS-15 04 Dec 12:42:36 12:53:05 31° 3° (N) 13:03:37 29.354- 29.394
UKube-1 04 Dec 12:43:02 12:47:21 62° 102° (ESE) 12:51:38 .
TISAT 1 04 Dec 12:53:36 12:57:00 23° 94° (E) 13:00:24 437.305
50 SAT 04 Dec 12:56:14 12:59:29 34° 289° (WNW) 13:02:44 437.505
ESTCUBE 1 04 Dec 12:57:34 13:00:48 20° 297° (WNW) 13:04:02 437.505/2401.250
SPROUT 04 Dec 12:59:59 13:04:11 51° 288° (WNW) 13:08:20 437.525
Gurwin Techsat 1B 04 Dec 13:06:21 13:11:40 85° 74° (ENE) 13:17:02 435.225
AISAT 04 Dec 13:11:50 13:15:40 28° 294° (WNW) 13:19:29 437.250
GONETS M04 04 Dec 13:22:43 13:30:26 37° 275° (W) 13:38:11
Oscar 19 04 Dec 13:26:34 13:31:12 34° 264° (W) 13:35:53 437.125/150
BEESAT 3 04 Dec 13:27:44 13:31:32 40° 48° (NE) 13:35:19 437.485
PCSat 04 Dec 13:28:07 13:32:52 30° 316° (NW) 13:37:39 145.827
SWISSCUBE 04 Dec 13:28:42 13:31:01 13° 89° (E) 13:33:19 437.505
BEESAT 04 Dec 13:32:59 13:35:16 13° 89° (E) 13:37:32 436.000
CUBEBUG 1 04 Dec 13:45:10 13:46:27 11° 302° (WNW) 13:47:44 437.445
VELOX 1 04 Dec 13:50:03 13:52:24 14° 300° (WNW) 13:54:47 145.980
ITAMSAT 1 04 Dec 13:50:04 13:55:08 54° 70° (ENE) 14:00:13 435.822/435.867
BEESAT 2 04 Dec 13:52:46 13:56:31 36° 46° (NE) 14:00:16 435.950
AO-7 04 Dec 13:53:48 14:01:47 54° 62° (ENE) 14:09:49 29.400- 29.500
ITUPSAT 1 04 Dec 13:58:11 14:01:58 23° 94° (E) 14:05:43 437.325
DX 1 04 Dec 14:09:27 14:12:03 16° 299° (WNW) 14:14:39 434.975-435.025
AUBIESAT-1 04 Dec 14:17:38 14:21:42 30° 100° (E) 14:25:37 437.475
Cosmos 2499 04 Dec 14:18:53 14:23:06 15° 288° (WNW) 14:27:13 435.465 / 435.565
UKube-1 04 Dec 14:20:21 14:22:54 16° 299° (WNW) 14:25:28 .
M-CUBED/EXP-1 PRIME 04 Dec 14:27:57 14:32:29 46° 104° (ESE) 14:36:53 437.505
TISAT 1 04 Dec 14:28:52 14:32:42 34° 292° (WNW) 14:36:31 437.305
Gurwin Techsat 1B 04 Dec 14:49:43 14:52:18 14° 272° (W) 14:54:53 435.225
MOZHAYETS 4 04 Dec 14:54:28 14:58:00 22° 93° (E) 15:01:31
RS-15 04 Dec 14:57:39 15:09:34 48° 36° (NE) 15:21:14 29.354- 29.394
SWISSCUBE 04 Dec 15:04:35 15:09:20 74° 287° (WNW) 15:14:04 437.505
BEESAT 3 04 Dec 15:05:50 15:08:57 22° 246° (WSW) 15:12:03 437.485
BEESAT 04 Dec 15:08:50 15:13:35 75° 287° (WNW) 15:18:19 436.000
BEESAT 2 04 Dec 15:30:49 15:34:11 26° 245° (WSW) 15:37:33 435.950
ITAMSAT 1 04 Dec 15:30:58 15:34:55 22° 268° (W) 15:38:54 435.822/435.867
ITUPSAT 1 04 Dec 15:35:28 15:39:58 43° 291° (WNW) 15:44:27 437.325
KKS-1 04 Dec 15:37:48 15:41:32 25° 95° (E) 15:45:14 437.445
Cubesat XI-IV 04 Dec 15:40:04 15:41:52 12° 53° (NE) 15:43:39 437.490
NOAA 15 04 Dec 15:42:45 15:45:10 13° 55° (NE) 15:47:35 137.62
AO-7 04 Dec 15:47:11 15:54:47 39° 262° (W) 16:02:28 29.400- 29.500
STARS 04 Dec 15:49:34 15:52:18 16° 91° (E) 15:55:01 437.465
AUBIESAT-1 04 Dec 15:51:53 15:56:04 34° 298° (WNW) 16:00:08 437.475
HORYU 2 04 Dec 15:52:15 15:56:20 35° 68° (ENE) 16:00:24 437.375
ISS 04 Dec 15:53:25 15:53:58 10° 131° (SE) 15:54:32 145.825
GOMX 1 04 Dec 16:00:48 16:04:24 23° 63° (ENE) 16:08:11 467.674
M-CUBED/EXP-1 PRIME 04 Dec 16:02:52 16:06:39 25° 301° (WNW) 16:10:22 437.505
AIST 2 04 Dec 16:03:58 16:07:36 27° 42° (NE) 16:11:14 435.215
LilacSat-2 04 Dec 16:06:17 16:07:43 12° 62° (ENE) 16:09:10 437.200
O/OREOS (USA 219) 04 Dec 16:10:38 16:15:04 52° 109° (ESE) 16:19:30 437.305
BRITE-PL 04 Dec 16:15:02 16:19:16 66° 74° (ENE) 16:23:50 437.365/2234.400
HO-68 04 Dec 16:20:47 16:21:23 10° 41° (NE) 16:21:57 435.675
DOVE 4 04 Dec 16:20:53 16:24:02 17° 59° (ENE) 16:27:17 437.250
CUBESAT XI-V 04 Dec 16:28:51 16:32:59 31° 95° (E) 16:37:06 437.345
MOZHAYETS 4 04 Dec 16:31:03 16:35:21 42° 290° (WNW) 16:39:37
SWISSCUBE 04 Dec 16:45:25 16:46:16 10° 305° (NW) 16:47:08 437.505
NOAA 18 04 Dec 16:45:30 16:50:10 29° 62° (ENE) 16:54:50 137.9125
BEESAT 04 Dec 16:49:32 16:50:31 11° 305° (NW) 16:51:31 436.000
CUTE-I 04 Dec 16:50:36 16:55:38 43° 68° (ENE) 17:00:42 437.470
